DW6276 Weather Reports


Display with metric or nautical units.
time (UTC)temp
F
wind
direction
speed
MPH
gust
MPH
rain 1hr
in
rain 24hr
in
rain mn
in
humidity
%
barometer
mb
20260904083517 75 0 1.0 2.0 0.00 0.29 0.00 89 1009.3
20260904082517 76 0.0 1.0 0.00 0.29 0.00 89 1009.3
20260904081517 76 0 1.0 2.0 0.00 0.29 0.00 89 1009.4
20260904080517 76 225 1.0 3.0 0.00 0.29 0.00 89 1009.4
20260904075517 76 0 2.0 4.0 0.00 0.29 0.00 89 1009.4
20260904074517 76 0 2.0 3.0 0.00 0.29 0.00 89 1009.4
20260904073516 76 203 1.0 2.0 0.00 0.29 0.00 89 1009.4
20260904072517 76 203 1.0 2.0 0.00 0.29 0.00 90 1009.5
20260904071516 76 0.0 1.0 0.00 0.29 0.00 90 1009.5
20260904070517 76 203 1.0 2.0 0.00 0.29 0.00 90 1009.3
20260904065516 75 203 2.0 3.0 0.00 0.29 0.00 91 1009.4
20260904064517 75 203 2.0 3.0 0.00 0.29 0.00 91 1009.4
20260904063516 75 203 1.0 2.0 0.00 0.29 0.00 91 1009.5
20260904062616 75 180 1.0 3.0 0.00 0.29 0.00 91 1009.5
20260904061516 75 0.0 1.0 0.00 0.29 0.00 91 1009.5
20260904060517 75 0.0 2.0 0.00 0.29 0.00 90 1009.5
20260904055517 75 180 1.0 2.0 0.00 0.29 0.00 90 1009.4
20260904054516 75 180 1.0 2.0 0.00 0.29 0.00 90 1009.4
20260904053516 75 180 1.0 2.0 0.00 0.29 0.00 90 1009.3
20260904052516 75 180 1.0 2.0 0.00 0.29 0.00 90 1009.3
20260904051536 75 0.0 1.0 0.00 0.29 0.00 90 1009.2
20260904050516 75 0.0 2.0 0.00 0.29 0.00 90 1009.2
20260904045517 76 0 1.0 1.0 0.00 0.29 0.29 89 1009.2
20260904044517 76 180 1.0 1.0 0.00 0.29 0.29 89 1009.2
20260904043517 77 0 1.0 1.0 0.00 0.29 0.29 89 1009.1
20260904042517 77 0 1.0 2.0 0.00 0.29 0.29 89 1009.2
20260904041517 77 0.0 2.0 0.00 0.29 0.29 88 1009.1
20260904040517 77 0.0 2.0 0.00 0.29 0.29 88 1009.0
20260904035517 77 0.0 2.0 0.00 0.29 0.29 88 1009.0
20260904034517 78 180 1.0 3.0 0.00 0.29 0.29 88 1009.0
20260904033517 78 180 2.0 2.0 0.00 0.29 0.29 87 1009.1
20260904032537 78 180 2.0 3.0 0.00 0.29 0.29 87 1009.1
20260904031517 78 180 2.0 3.0 0.00 0.29 0.29 86 1009.1
20260904030517 79 180 2.0 3.0 0.00 0.29 0.29 86 1008.9
20260904025517 79 203 2.0 5.0 0.00 0.29 0.29 86 1009.0
20260904024517 79 180 2.0 4.0 0.00 0.29 0.29 85 1008.9
20260904023517 79 180 1.0 3.0 0.00 0.29 0.29 84 1008.9
20260904022517 79 180 1.0 3.0 0.00 0.29 0.29 84 1009.0
20260904021517 79 180 3.0 6.0 0.00 0.29 0.29 84 1008.8
20260904020517 79 158 3.0 5.0 0.00 0.29 0.29 84 1008.7
20260904015517 79 180 2.0 5.0 0.00 0.29 0.29 84 1008.6
20260904014517 79 158 2.0 4.0 0.00 0.29 0.29 84 1008.5
20260904013517 79 158 2.0 4.0 0.00 0.29 0.29 84 1008.2
20260904012517 79 180 2.0 3.0 0.00 0.29 0.29 84 1007.9
20260904011517 79 180 1.0 3.0 0.00 0.29 0.29 84 1008.1
20260904010517 79 0.0 1.0 0.00 0.29 0.29 83 1008.1
20260904005517 80 0.0 1.0 0.00 0.29 0.29 82 1008.0
20260904004517 81 0.0 2.0 0.00 0.29 0.29 81 1008.1
20260904003517 82 0.0 1.0 0.00 0.29 0.29 79 1008.0
20260904002536 83 180 1.0 2.0 0.00 0.29 0.29 77 1008.1
20260904001517 83 180 2.0 3.0 0.00 0.29 0.29 75 1008.1
20260904000516 84 180 3.0 5.0 0.00 0.29 0.29 74 1008.0
20260903235516 85 0 5.0 8.0 0.00 0.29 0.29 72 1008.1
20260903234516 85 0 5.0 12.0 0.00 0.29 0.29 71 1008.1
20260903233516 85 0 4.0 7.0 0.00 0.29 0.29 72 1008.1
20260903232516 86 0 5.0 9.0 0.00 0.29 0.29 70 1008.3
20260903231517 86 0 5.0 11.0 0.00 0.29 0.29 70 1008.4
20260903230516 86 0 5.0 8.0 0.00 0.29 0.29 70 1008.2
20260903225517 86 0 6.0 10.0 0.00 0.29 0.29 70 1008.1
20260903224516 87 0 6.0 10.0 0.00 0.29 0.29 69 1007.9
20260903223516 87 0 5.0 8.0 0.00 0.29 0.29 69 1007.7
20260903222516 86 158 5.0 9.0 0.00 0.29 0.29 69 1007.2
20260903221516 87 158 5.0 9.0 0.00 0.29 0.29 68 1007.4
20260903220516 87 0 5.0 10.0 0.00 0.29 0.29 66 1007.6
20260903215516 87 0 5.0 9.0 0.00 0.29 0.29 67 1007.7
20260903214516 87 0 7.0 11.0 0.00 0.29 0.29 65 1008.0
20260903213516 87 0 7.0 12.0 0.00 0.29 0.29 65 1007.9
20260903212516 87 0 6.0 10.0 0.00 0.29 0.29 65 1008.2
20260903211516 87 0 7.0 11.0 0.00 0.29 0.29 63 1008.4
20260903210536 87 0 6.0 15.0 0.00 0.29 0.29 66 1008.3
20260903205516 87 158 6.0 10.0 0.00 0.29 0.29 67 1008.2
20260903204516 87 158 6.0 12.0 0.00 0.29 0.29 66 1008.1
20260903203516 87 0 6.0 13.0 0.00 0.29 0.29 67 1008.3
20260903202516 87 0 6.0 11.0 0.00 0.29 0.29 65 1008.4
20260903201517 86 0 8.0 13.0 0.00 0.29 0.29 66 1008.5
20260903200516 87 180 6.0 13.0 0.00 0.29 0.29 68 1008.5
20260903195536 87 180 8.0 14.0 0.00 0.29 0.29 67 1008.4
20260903194516 87 158 7.0 11.0 0.00 0.29 0.29 67 1008.7
20260903193516 86 180 8.0 13.0 0.00 0.29 0.29 67 1009.2
20260903192516 86 0 6.0 13.0 0.00 0.29 0.29 67 1009.2
20260903191516 86 158 8.0 15.0 0.00 0.29 0.29 66 1008.9
20260903190516 86 180 6.0 10.0 0.00 0.29 0.29 68 1009.0
20260903185517 85 0 8.0 14.0 0.00 0.29 0.29 67 1008.8
20260903184516 86 180 7.0 14.0 0.00 0.29 0.29 67 1008.9
20260903183516 86 203 7.0 13.0 0.00 0.29 0.29 67 1009.2
20260903182536 86 180 6.0 12.0 0.00 0.29 0.29 66 1009.4
20260903181516 86 225 7.0 16.0 0.00 0.29 0.29 65 1009.3
20260903180516 86 203 7.0 14.0 0.00 0.29 0.29 65 1009.4
20260903175516 86 180 5.0 9.0 0.00 0.29 0.29 67 1009.5
20260903174516 85 203 8.0 13.0 0.00 0.29 0.29 66 1009.5
20260903173516 85 203 6.0 10.0 0.00 0.29 0.29 66 1009.5
20260903172536 84 203 8.0 15.0 0.00 0.29 0.29 66 1009.6
20260903171536 84 203 9.0 14.0 0.00 0.29 0.29 69 1009.5
20260903170516 84 180 9.0 14.0 0.00 0.29 0.29 67 1009.6
20260903165516 84 203 7.0 17.0 0.00 0.29 0.29 67 1009.7
20260903164516 84 180 10.0 21.0 0.00 0.29 0.29 66 1009.8
20260903163516 84 180 7.0 12.0 0.01 0.29 0.29 67 1010.1
20260903162536 84 180 7.0 12.0 0.01 0.29 0.29 68 1010.2
20260903161516 84 180 6.0 11.0 0.01 0.29 0.29 69 1010.3
20260903160516 83 158 6.0 10.0 0.01 0.29 0.29 72 1010.1
20260903155516 82 158 7.0 12.0 0.01 0.29 0.29 72 1009.9
20260903154535 81 158 6.0 10.0 0.01 0.29 0.29 73 1010.0
20260903153516 80 180 7.0 12.0 0.00 0.28 0.28 72 1010.1
20260903152516 79 158 6.0 13.0 0.00 0.28 0.28 74 1010.2
20260903151515 79 180 4.0 6.0 0.00 0.28 0.28 75 1010.1
20260903150515 79 158 4.0 8.0 0.00 0.28 0.28 75 1009.9
20260903145516 79 180 6.0 11.0 0.00 0.28 0.28 75 1009.7
20260903144535 78 158 4.0 7.0 0.00 0.28 0.28 78 1009.7
20260903143515 77 180 4.0 7.0 0.00 0.28 0.28 78 1009.8
20260903142515 77 180 4.0 7.0 0.00 0.28 0.28 79 1009.9
20260903141516 77 158 2.0 5.0 0.00 0.28 0.28 81 1009.6
20260903140515 76 203 1.0 3.0 0.00 0.28 0.28 83 1009.6
20260903135535 75 180 2.0 4.0 0.00 0.28 0.28 84 1009.8
20260903134515 74 180 2.0 4.0 0.00 0.28 0.28 84 1009.9
20260903133515 74 180 3.0 5.0 0.00 0.28 0.28 85 1010.0
20260903132516 73 158 3.0 5.0 0.00 0.28 0.28 86 1009.9
20260903131535 73 180 4.0 8.0 0.00 0.28 0.28 86 1009.8
20260903130515 72 158 4.0 8.0 0.00 0.28 0.28 87 1009.5
20260903125515 71 135 4.0 7.0 0.00 0.28 0.28 88 1009.5
20260903124515 71 0 4.0 7.0 0.00 0.28 0.28 88 1009.6
20260903123515 71 0 5.0 8.0 0.01 0.28 0.28 89 1009.7
20260903122515 71 0 5.0 9.0 0.01 0.28 0.28 89 1009.9
20260903121515 71 0 6.0 11.0 0.02 0.28 0.28 89 1010.0
20260903120515 71 0 4.0 7.0 0.09 0.28 0.28 89 1010.1
20260903115515 71 0 5.0 9.0 0.12 0.28 0.28 89 1010.0
20260903114515 71 0 5.0 8.0 0.14 0.28 0.28 90 1010.0
20260903113517 72 0 6.0 9.0 0.14 0.27 0.27 90 1009.6
20260903112517 72 0 6.0 10.0 0.14 0.27 0.27 89 1009.2
20260903111517 72 0 6.0 9.0 0.13 0.26 0.26 89 1010.3
20260903110517 73 0 6.0 10.0 0.06 0.19 0.19 88 1011.0
20260903105517 72 0 6.0 11.0 0.10 0.16 0.16 89 1011.3
20260903104517 73 0 3.0 11.0 0.14 0.14 0.14 91 1010.5
20260903103557 73 0 3.0 5.0 0.13 0.13 0.13 91 1011.2
20260903102517 73 0 2.0 5.0 0.13 0.13 0.13 91 1010.7
20260903101517 73 0 4.0 6.0 0.13 0.13 0.13 91 1010.5
20260903100517 73 0 5.0 7.0 0.13 0.13 0.13 92 1010.7
20260903095517 72 0 3.0 7.0 0.06 0.06 0.08 91 1010.9
20260903094517 72 0 1.0 2.0 0.00 0.00 0.00 91 1010.8
20260903093517 72 0.0 1.0 0.00 0.00 0.00 90 1010.2
20260903092517 72 0 1.0 2.0 0.00 0.00 0.00 90 1010.3
20260903091517 72 0 1.0 3.0 0.00 0.00 0.00 90 1010.5
20260903090517 71 0 1.0 3.0 0.00 0.00 0.00 90 1010.7
20260903085537 71 0 1.0 4.0 0.00 0.00 0.00 90 1010.2
20260903084517 71 0.0 2.0 0.00 0.00 0.00 90 1010.1